Погода в Заозерье

Россия / Ярославская область     57°11′50″N   38°14′45″E
темп.,
°C
ветер,
м/с
пор.,
м/с
влажн.,
%
обл.,
%
осадки,
мм/ч
давл.,
гПа
погр.,
м
20 апреля, вт
вт2000:00+3в41258100 0.0 1027604
03:00+1в4126788 0.0 1026473
06:00+1в5126688 0.0 1026509
09:00+4в61060100 0.0 1025645
12:00+7в6951100 0.0 10241098
15:00+8вюв51154100 0.0 10221421
18:00+6вюв41374100 0.6 10201350
21:00+5в51484100 1.0 10191138
21 апреля, ср
ср2100:00+6в61263100 0.0 10151000
03:00+3в71469100 0.3 1011834
06:000в71796100 3.8 1007846
09:00+1в71696100 5.8 1004773
12:00+2в61597100 2.2 10001030
15:00+2ююв4997100 5.0 999761
18:00+2ююз61397100 0.8 1004630
21:00+2ююз61197100 1.6 1007817
22 апреля, чт
чт2200:00+3ююз51198100 0.1 1009887
03:00+3ю41196100 0.1 1011384
06:00+2ю41195100 0.0 1012349
09:00+6ю51084100 0.0 1012531
12:00+10ююз6107268 0.2 10131244
15:00+8ююз51084100 2.0 1014743
18:00+9ююз498497 0.1 1015924
21:00+8ю399080 0.1 1016291
23 апреля, пт
пт2300:00+5ююв37955 0.0 1016146
03:00+5ююв37955 0.0 1016121
06:00+5ююв39955 0.0 1016193
09:00+11ю48775 0.0 1016438
12:00+15ю610628 0.1 10151439
15:00+16ююз58605 1.4 10141505
18:00+14ю51166100 0.8 1013696
21:00+11ююв515775 0.8 1013550
24 апреля, сб
сб2400:00+10ююв6168052 0.0 1011660
03:00+9ю6148138 0.0 1010751
06:00+7зюз3691100 0.3 1010595
09:00+4зсз2595100 2.1 1010587
12:00+4зюз2495100 4.8 1011461
15:00+5ю2487100 5.8 1010579
18:00+6ююв358265 0.1 1010680
21:00+4ю2693100 0.4 1009524